{"data":{"norad_id":66842,"intl_designator":"2025-280X","name":"STARLINK-35769","alt_names":[],"object_type":"PAYLOAD","status":"ACTIVE","operator":null,"country":"US","launch_date":"2025-12-02","launch_site_code":"AFWTR","launch_vehicle":null,"mission":null,"orbit_class":"UNKNOWN","rcs_meters":null,"size_class":null,"mass_kg":null,"dimensions":null,"purposes":["comms"],"wikipedia_slug":null,"has_3d_model":false,"image_url":null,"decayed_at":null,"tle_current":{"epoch":"2026-05-25T03:42:49.371840Z","epoch_age_seconds":72412,"freshness":"FRESH","line1":"1 66842U 25280X   26145.15473810  .00003297  00000+0  28386-3 0  9990","line2":"2 66842  70.0006 141.4984 0004115 264.7859  95.2830 14.98339788 27538","mean_motion":14.98339788,"eccentricity":0.0004115,"inclination_deg":70.0006,"raan_deg":141.4984,"arg_perigee_deg":264.7859,"mean_anomaly_deg":95.283,"bstar":0.00028386,"rev_number":2753,"period_min":96.106371300606,"perigee_km":569.16563060744,"apogee_km":574.88561444578,"semimajor_km":6950.1626225266,"source":"CELESTRAK","updated_at":"2026-05-25T13:38:21.338229Z"}}}